Location: Squamish
(49.7000°N, 123.1500°W)
Time: 05:27:45
(UTC-07:00)

Daily predictions for brighter satellites

Satellite Brightness Start Highest point End
(mag) Time Altitude Azimuth Time Altitude Azimuth Time Altitude Azimuth
Cosmos 1302 Rocket 3.9 00:04:22 32° SSW 00:06:54 83° ESE 00:12:14 10° NNE
Cosmos 2285 Rocket 4.2 00:04:24 33° SSE 00:07:00 54° ESE 00:13:14 10° NNE
CZ-4C R/B 3.5 00:08:03 46° ESE 00:08:39 52° ENE 00:12:18 10° N
Cosmos 1455 Rocket 3.7 00:08:13 36° ESE 00:08:52 38° E 00:12:55 10° NNE
ALOS 2 3.0 00:08:39 39° ESE 00:09:55 53° ENE 00:14:12 10° N
Meteor 2-21 Rocket 4.4 00:07:24 32° S 00:10:30 84° E 00:16:45 10° NNE
Meteor 2-16 Rocket 4.4 00:09:27 35° S 00:12:11 73° E 00:18:17 10° NNE
Cosmos 2123 Rocket 3.9 00:05:53 10° N 00:12:12 89° ENE 00:15:04 35° S
Cosmos 1934 Rocket 3.9 00:09:24 34° S 00:12:15 81° E 00:18:20 10° N
Terra 3.6 00:10:08 15° SW 00:12:42 23° W 00:16:30 10° NW
Okean 2 3.4 00:10:26 10° N 00:14:38 78° E 00:15:29 55° SSE
Okean 1 Rocket 4.1 00:12:31 22° SW 00:14:58 43° WNW 00:19:15 10° N
Cosmos 1315 Rocket 2.8 00:14:36 57° SE 00:15:01 61° E 00:18:55 10° NNE
Cosmos 2082 Rocket 4.4 00:12:10 10° WNW 00:15:22 15° W 00:18:32 10° SW
Genesis I 3.1 00:18:17 62° SSE 00:18:38 66° SE 00:22:39 10° NE
Lacrosse 5 rocket 1.5 00:19:37 47° E 00:19:37 47° E 00:22:33 10° ENE
Meteor 2-4 Rocket 3.7 00:15:37 10° NNW 00:21:01 70° W 00:23:10 38° S
Cosmos 2263 4.5 00:30:27 40° SSE 00:31:50 49° ESE 00:37:16 10° NE
Cosmos 1346 Rocket 2.8 00:30:22 10° N 00:34:16 61° ENE 00:34:42 56° ESE
Iridium 4 Rocket 4.4 00:29:03 10° NNW 00:34:42 51° W 00:37:34 28° SW
Lacrosse 5 1.8 00:35:50 40° SSW 00:37:34 67° SE 00:42:38 10° ENE
CZ-4B R/B 1.5 00:38:29 66° NNE 00:38:29 66° NNE 00:41:23 10° N
Cosmos 1544 Rocket 3.5 00:37:33 54° SSW 00:38:30 81° WNW 00:42:51 10° N
BREEZE-M DEB (TANK) 2.6 00:35:58 10° W 00:38:50 69° SSW 00:47:28 10° ESE
Helios 1A Rocket 4.1 00:35:36 10° NE 00:39:14 29° E 00:39:24 28° E
deb Kosmos-1763 4.1 00:36:18 10° NNW 00:40:12 69° WSW 00:40:26 66° SW
Meteor 1-11 Rocket 4.4 00:37:10 23° SW 00:40:37 51° WNW 00:46:15 10° N
SeaSat 1 4.3 00:41:26 10° E 00:45:26 25° NE 00:49:26 10° N
Cosmos 44 Rocket 3.7 00:41:09 10° NW 00:46:19 65° NE 00:48:32 33° ESE
Cosmos 1400 Rocket 4.1 00:46:53 27° WSW 00:48:22 37° WNW 00:52:14 10° N
Cosmos 1536 3.9 00:47:50 31° WSW 00:48:58 39° WNW 00:52:45 10° N
Cosmos 1833 4.1 00:44:01 10° NNW 00:49:41 87° ENE 00:51:44 41° SSE
Landsat 5 3.4 00:50:00 61° SSE 00:50:45 90° WSW 00:54:58 10° NNW
GP-B 3.4 00:49:44 10° N 00:54:06 53° E 00:54:52 46° SE
H-2A R/B 2.6 00:55:52 10° NNE 01:00:28 86° ESE 01:01:22 57° S
Cosmos 968 Rocket 3.5 00:55:56 10° NNW 01:01:12 74° ENE 01:02:57 42° SE
CZ-2C R/B 3.5 01:02:04 34° ESE 01:03:52 51° ENE 01:08:34 10° N
Cosmos 1743 4.3 01:03:53 23° E 01:04:03 23° E 01:07:11 10° NE
Cosmos 1975 2.8 01:06:02 66° SE 01:06:20 70° E 01:10:24 10° NNE
Cosmos 2369 Rocket 2.3 01:05:43 31° SW 01:08:26 71° WNW 01:14:05 10° NNE
Cosmos 1633 4.4 01:07:53 21° W 01:08:53 24° WNW 01:11:58 10° NNW
CZ-2C R/B 2.8 01:08:23 10° NNE 01:13:32 56° E 01:14:55 43° SSE
Cosmos 1689 Rocket 3.5 01:15:58 34° WNW 01:15:58 34° WNW 01:18:26 10° NNW
Cosmos 2219 3.2 01:10:39 10° NNW 01:16:20 76° ENE 01:18:42 36° SE
Cosmos 2227 Rocket 3.8 01:13:37 10° NNW 01:18:36 30° NE 01:23:34 10° ESE
Cosmos 1825 Rocket 3.9 01:14:23 10° N 01:18:48 57° ENE 01:19:49 45° SE
Cosmos 1066 Rocket 4.0 01:13:33 10° N 01:18:56 83° ENE 01:20:38 45° SSE
Cosmos 44 3.8 01:16:16 10° NW 01:21:33 62° NE 01:24:17 26° ESE
BREEZE-M R/B 4.5 01:13:21 10° WNW 01:24:17 88° SSW 01:30:06 10° ESE
Cosmos 2100 Rocket 4.0 01:22:11 40° S 01:24:42 89° ESE 01:31:08 10° N
Cosmos 1818 3.5 01:27:59 45° SSW 01:29:43 80° SE 01:35:14 10° NE
ATLAS 2AS CENTAUR R/B 3.1 01:22:01 10° NW 01:30:01 62° WSW 01:33:30 35° S
Cosmos 1666 4.5 01:30:40 21° E 01:31:04 21° E 01:33:58 10° NE
Cosmos 1758 Rocket 4.2 01:27:54 10° N 01:32:18 50° ENE 01:33:33 38° ESE
Cosmos 1656 Rocket 4.2 01:33:08 38° SSE 01:34:34 46° ESE 01:39:54 10° NE
Cosmos 1602 Rocket 4.4 01:30:47 10° NNW 01:34:53 37° W 01:35:32 35° WSW
ISS -2.4 01:32:41 10° WNW 01:41:16 - E 01:35:07 44° NW
Cosmos 1500 3.0 01:38:24 79° SW 01:38:35 84° WNW 01:42:25 10° N
USA 234 3.6 01:32:31 10° ENE 01:39:00 65° NNW 01:45:27 10° W
Cosmos 2297 Rocket 3.8 01:34:56 10° NNW 01:39:57 31° NE 01:44:57 10° ESE
Cosmos 1459 Rocket 3.9 01:38:18 39° SSW 01:40:41 76° W 01:46:48 10° N
Cosmos 2061 Rocket 4.1 01:38:08 38° SSW 01:40:48 79° W 01:47:15 10° N
Cosmos 2016 Rocket 3.9 01:40:46 41° S 01:43:05 84° E 01:49:13 10° N
Cosmos 1943 Rocket 2.1 01:41:39 41° SW 01:43:42 84° WNW 01:49:21 10° NNE
Cosmos 1777 Rocket 3.9 01:39:17 10° NNW 01:44:31 82° WSW 01:46:06 46° SSE
Cosmos 1515 4.5 01:41:05 10° NNW 01:44:42 39° W 01:44:45 39° W
ALOS 2 4.4 01:46:03 19° W 01:46:33 19° W 01:49:45 10° NW
Cosmos 1802 Rocket 4.0 01:48:54 38° SSW 01:51:25 75° W 01:57:45 10° N
BREEZE-M DEB (TANK) 2.9 01:46:45 10° WNW 01:57:06 71° SSW 01:58:52 31° SE
Lacrosse 5 rocket 2.5 01:55:18 13° W 01:58:16 37° NNW 02:01:42 10° NE
Cosmos 2173 Rocket 4.4 01:59:06 33° SW 02:01:52 57° WNW 02:08:10 10° N
Cosmos 1864 Rocket 4.5 02:01:00 38° S 02:03:38 80° E 02:09:52 10° NNE
Cosmos 2228 3.8 02:05:51 35° SE 02:06:56 42° E 02:11:00 10° NNE
PSLV R/B 4.0 02:08:48 55° SW 02:09:16 59° WSW 02:13:24 10° NNW
Uosat 12 SS-18 rocket 4.2 02:05:26 10° NW 02:09:59 80° SW 02:12:06 35° SSE
Helios 1A Rocket 4.2 02:10:48 10° N 02:14:32 32° WNW 02:15:43 27° W
Cosmos 1816 Rocket 4.5 02:12:34 10° NNW 02:18:52 80° W 02:21:47 34° S
Cosmos 1725 Rocket 3.9 02:16:53 37° SSW 02:19:32 79° W 02:25:46 10° N
Lacrosse 5 2.9 02:15:52 10° W 02:20:47 46° NNW 02:25:43 10° NE
Cosmos 1606 Rocket 3.6 02:21:26 48° SW 02:22:23 63° WNW 02:26:43 10° N
SeaSat 1 2.4 02:20:46 39° SSE 02:22:35 72° WSW 02:27:33 10° NNW
Tsikada Rocket 4.2 02:21:56 10° NNW 02:28:05 56° W 02:30:45 33° SSW
Cosmos 2150 Rocket 4.3 02:30:48 10° NNW 02:36:03 66° ENE 02:40:01 17° SE
Cosmos 1743 3.8 02:39:02 29° W 02:39:47 31° WNW 02:43:18 10° N
Cosmos 1340 3.2 02:36:47 10° NNW 02:40:24 41° W 02:40:38 41° WSW
PSLV R/B 3.6 02:36:46 10° NNE 02:41:14 83° ESE 02:42:49 41° S
Cosmos 1812 Rocket 4.3 02:40:15 28° SSE 02:42:10 46° E 02:46:27 10° NNE
Cosmos 2058 Rocket 3.3 02:42:19 41° SW 02:43:36 59° WNW 02:48:02 10° N
Cosmos 1898 Rocket 3.6 02:38:25 10° NNW 02:43:48 77° ENE 02:47:47 18° SSE
CZ-2C R/B 4.3 02:43:08 23° WSW 02:44:01 24° W 02:47:57 10° NW
Cosmos 1570 Rocket 4.1 02:45:48 35° SW 02:48:07 76° WNW 02:53:29 10° NNE
SL-16 R/B 3.8 02:44:50 10° SE 02:50:28 39° ENE 02:56:07 10° N
IRS-P3 4.3 02:47:15 10° NNE 02:52:36 65° ESE 02:55:24 28° S
Cosmos 2082 3.6 02:47:16 10° NNW 02:52:55 75° WSW 02:56:38 22° SSE
NOSS 3-4 (A) 3.8 02:46:18 10° NW 02:53:12 87° NE 03:00:32 10° SE
NOSS 3-4 (C) 3.8 02:46:24 10° NW 02:53:20 86° NE 03:00:42 10° SE
Cosmos 972 Rocket 4.0 02:48:30 10° NNW 02:53:22 61° WSW 02:55:34 33° S
CZ-2C R/B 4.1 02:49:16 10° N 02:53:31 26° WNW 02:56:26 16° WSW
Cosmos 2369 Rocket 4.4 02:49:38 10° W 02:53:31 19° NW 02:57:26 10° N
Cosmos 1697 Rocket 4.4 02:50:22 13° SSE 02:54:00 23° ESE 02:58:21 10° NE
Cosmos 1937 Rocket 3.7 02:49:49 10° NNW 02:55:00 69° ENE 02:59:50 12° SSE
Cosmos 1842 4.3 02:51:30 10° NNW 02:55:02 30° W 02:55:28 30° WSW
Meteor 2-9 Rocket 4.4 02:57:31 30° SSW 03:00:23 64° WNW 03:06:09 10° N
Cosmos 44 4.4 02:58:10 10° WNW 03:02:25 26° WSW 03:02:40 26° WSW
Cosmos 1980 Rocket 4.4 02:59:16 10° SE 03:02:44 17° E 03:06:13 10° ENE
ATLAS CENTAUR R/B 2.9 03:00:50 23° SSE 03:03:02 33° ESE 03:07:29 10° NE
Cosmos 2227 Rocket 2.2 02:57:28 10° NW 03:03:03 61° WSW 03:06:27 24° S
NOSS 3-3 (A) 4.2 02:59:42 24° SW 03:03:46 74° NW 03:10:43 10° NE
GEOS 3 Rocket 4.3 02:58:46 10° ESE 03:03:51 57° NE 03:08:54 10° NW
NOSS 3-3 (C) 4.2 02:59:48 24° SW 03:03:51 75° NW 03:10:48 10° NE
Cosmos 1666 3.7 03:05:40 29° WSW 03:06:36 33° WNW 03:10:04 10° N
ARIANE 5 R/B 4.0 03:06:25 10° NNE 03:10:58 31° E 03:15:18 11° SSE
ISS -1.5 03:14:22 19° SE 03:14:22 19° SE 03:15:31 10° SE
Meteor 2-5 Rocket 3.8 03:07:35 10° NNW 03:13:28 80° W 03:17:43 20° S
SL-08 R/B 3.3 03:12:19 28° S 03:14:41 65° WSW 03:19:19 10° NNW
Resurs 1-4 Rocket 3.8 03:10:16 10° NE 03:14:43 27° E 03:19:08 10° SSE
ADEOS 4.2 03:09:58 10° NNE 03:15:05 50° E 03:18:43 19° S
Okean 3 Rocket 3.6 03:10:56 10° N 03:15:23 80° E 03:18:15 21° SSE
USA 234 4.2 03:15:18 10° ENE 03:21:31 47° N 03:27:44 10° WNW
Cosmos 1464 Rocket 4.0 03:18:59 23° S 03:23:10 87° WNW 03:29:34 10° N
Cosmos 405 Rocket 2.9 03:19:22 10° NNW 03:23:25 60° W 03:25:10 31° SSW
Cosmos 2297 Rocket 2.3 03:18:48 10° NW 03:24:21 58° WSW 03:28:44 16° S
NPP 3.6 03:19:34 10° NNE 03:25:00 83° WNW 03:28:20 24° SSW
Cosmos 2278 3.7 03:22:42 26° SSW 03:26:02 88° WNW 03:31:46 10° NNE
Cosmos 2369 3.7 03:24:20 25° SSW 03:27:44 86° ESE 03:33:27 10° NNE
Cosmos 1378 4.0 03:24:19 10° N 03:28:02 50° ENE 03:31:34 11° SSE
Cosmos 1943 Rocket 4.1 03:24:09 10° W 03:28:20 21° NW 03:32:34 10° N
Spot 4 Rocket 4.4 03:24:22 10° NNE 03:29:29 59° E 03:33:21 17° S
Cosmos 1092 Rocket 4.5 03:26:57 10° N 03:33:11 63° ENE 03:39:27 10° SSE
Cosmos 1766 4.1 03:33:18 16° SSE 03:36:13 46° E 03:40:00 10° NNE
CBERS-1 4.0 03:31:49 10° NNE 03:36:59 76° WNW 03:40:18 22° SSW
SAR-Lupe-3 4.5 03:35:18 18° SSE 03:37:47 86° ENE 03:41:18 10° NNW
Lacrosse 5 rocket 3.3 03:35:03 10° NW 03:38:13 26° N 03:41:19 10° ENE
IRS-1D 4.2 03:34:39 10° NNE 03:39:27 48° E 03:43:53 12° S
Cosmos 1076 Rocket 3.8 03:35:07 10° N 03:39:28 69° ENE 03:43:45 10° SSE
Cosmos 1814 Rocket 4.1 03:36:54 22° SSW 03:40:27 81° ESE 03:45:51 10° NNE
ERS-2 2.2 03:37:32 10° NNE 03:41:18 83° ESE 03:43:28 24° SSW
USA 161 1.3 03:42:19 29° S 03:43:37 76° WSW 03:46:24 10° NNW
Abrixas 3.0 03:48:10 30° WSW 03:49:01 37° SSW 03:51:52 10° SE
Meteor 1-24 Rocket 3.8 03:49:31 10° NNW 03:55:09 64° W 04:00:52 10° S
Cosmos 2263 Rocket 4.3 03:51:57 10° NNW 03:56:51 29° NE 04:01:41 10° ESE
Cosmos 1441 Rocket 3.2 03:54:06 10° NNW 03:58:07 81° W 04:02:07 10° S
IRAS Rocket 4.4 03:52:54 10° NNE 03:58:28 63° WNW 04:02:47 17° SW
Cosmos 990 Rocket 4.2 03:53:38 10° NNW 03:58:43 51° WSW 04:03:47 10° S
Okean O Rocket 3.7 03:56:06 10° NE 03:59:38 23° E 04:03:10 10° SSE
Meteor 1-22 Rocket 4.4 03:55:30 14° S 04:00:49 89° W 04:06:59 10° NNE
SeaSat 1 4.4 04:00:33 12° WSW 04:00:54 12° W 04:02:40 10° W
Cosmos 1758 4.4 03:58:38 10° SSE 04:02:27 43° E 04:06:16 10° NNE
EO 1 Del DPAF 3.2 03:58:46 10° SSE 04:02:39 89° ENE 04:06:34 10° NNW
Cosmos 1707 3.9 04:00:58 10° NNW 04:04:19 27° W 04:06:10 19° SW
Lacrosse 5 3.4 03:59:53 10° WNW 04:04:38 37° N 04:09:21 10° ENE
Cosmos 468 Rocket 4.2 04:01:45 18° SW 04:05:31 58° WNW 04:10:38 10° NNE
SL-24 R/B 4.4 04:01:05 11° S 04:05:43 56° WSW 04:10:06 10° NNW
Cosmos 1805 4.3 04:03:03 10° SSE 04:06:47 44° E 04:10:32 10° NNE
Cosmos 1953 3.1 04:03:00 10° S 04:06:55 50° E 04:10:53 10° NNE
UNK 2.2 04:05:24 10° W 04:10:01 86° S 04:12:14 10° E
Cosmos 1656 3.7 04:06:24 16° SSW 04:10:59 80° WNW 04:16:41 10° NNE
Cosmos-2242 3.5 04:07:07 10° S 04:11:22 59° E 04:15:35 10° NNE
Cosmos 1408 Rocket 3.6 04:07:46 10° NNW 04:12:06 60° W 04:16:27 10° S
Cosmos 2227 4.2 04:08:08 10° NNW 04:13:56 82° WSW 04:19:42 10° SSE
Cosmos 1766 Rocket 3.6 04:11:27 10° NNW 04:15:47 60° W 04:20:08 10° S
CZ-2D R/B 2.3 04:10:36 10° NNE 04:16:07 81° ESE 04:21:32 10° SSW
NOSS 2-1 (D) 3.8 04:14:29 16° WSW 04:17:43 62° NW 04:22:36 10° NE
NOSS 2-1 (C) 3.8 04:15:51 15° WSW 04:19:07 62° NW 04:24:00 10° NE
Cosmos 372 Rocket 4.3 04:14:14 10° NNW 04:19:21 70° ENE 04:24:26 10° SSE
EP 2 4.3 04:21:25 18° SW 04:23:16 89° N 04:26:22 10° NE
Cosmos 1544 4.4 04:19:52 10° SSE 04:23:17 39° E 04:26:44 10° NNE
Gblst 52 Del rocket 4.5 04:17:08 10° WNW 04:23:36 81° N 04:29:20 10° E
Cosmos 1437 2.8 04:21:51 10° NNW 04:25:13 86° WSW 04:28:33 10° S
MOZ.5/SAFIR/RUBIN 5/SL-8 4.4 04:21:22 10° SSE 04:25:59 61° ENE 04:30:37 10° N
MTI 3.8 04:23:58 10° S 04:27:14 72° WSW 04:30:34 10° NNW
Nadezhda 4 Rocket 4.4 04:22:26 10° NNW 04:28:12 43° W 04:34:01 10° SSW
MOS 1-B 4.5 04:23:16 10° NNE 04:29:08 81° ESE 04:34:57 10° SSW
In-Cosmos 22 4.1 04:24:51 10° NNW 04:30:06 65° W 04:35:19 10° S
Cosmos 1125 Rocket 3.5 04:26:50 10° NNW 04:31:59 60° WSW 04:37:05 10° S
SL-16 R/B 2.9 04:28:10 10° S 04:34:02 45° W 04:39:57 10° NNW
NOSS 2-1 (E) 4.2 04:30:30 12° WSW 04:34:18 53° NW 04:39:18 10° NE
Meteor 1-21 Rocket 4.3 04:29:54 10° NNW 04:35:49 73° W 04:41:43 10° S
Cosmos 841 Rocket 3.6 04:31:43 11° SSW 04:36:47 70° WNW 04:42:05 10° NNE
Cosmos 1655 Rocket 4.1 04:30:31 10° N 04:36:58 87° W 04:43:22 10° S
Cosmos 1697 Rocket 2.8 04:32:06 11° SW 04:37:28 68° WNW 04:43:09 10° NNE
Cosmos 1674 3.1 04:34:07 10° N 04:37:54 67° ENE 04:41:39 10° SSE
RESURS DK-1 2.3 04:34:02 10° NNW 04:38:12 78° WSW 04:42:20 10° SSE
Cosmos 1842 Rocket 4.1 04:37:31 10° S 04:41:57 64° E 04:46:24 10° NNE
ATLAS CENTAUR R/B 2.4 04:37:10 10° WSW 04:42:03 52° NW 04:46:53 10° NNE
GEOS 3 Rocket 4.2 04:37:20 10° S 04:42:05 35° WSW 04:46:49 10° NW
Cosmos 1763 Rocket 3.8 04:37:39 11° SW 04:42:40 57° WNW 04:47:47 10° NNE
Cosmos 332 Rocket 4.5 04:38:29 10° S 04:43:09 53° ESE 04:47:53 10° NNE
CZ-2D R/B 3.6 04:40:17 10° NNE 04:44:38 87° E 04:49:03 10° SSW
Cosmos 1980 Rocket 2.3 04:40:18 10° SSW 04:45:57 88° WNW 04:51:40 10° NNE
ISS -1.3 04:47:29 10° WSW 04:48:10 10° SW 04:48:51 10° SSW
ARIANE 5 R/B 3.1 04:45:24 10° N 04:50:14 43° WNW 04:55:05 10° SW
Cosmos 1461 3.1 04:48:43 10° NW 04:52:43 44° WSW 04:56:32 10° SSE
Resurs 1-4 Rocket 2.5 04:49:44 10° N 04:54:50 51° WNW 04:59:53 10° SW
Cosmos 2322 Rocket 3.0 04:52:30 10° S 04:57:54 51° ESE 05:03:21 10° NE
Cosmos 2026 Rocket 4.2 04:53:03 10° NNW 04:59:16 59° W 05:05:24 10° S
BREEZE-M DEB (TANK) 2.1 04:57:03 10° WSW 05:01:00 71° S 05:03:13 10° E
CZ-3 R/B 4.5 04:42:17 10° SW 05:01:56 24° S 05:09:31 10° SE
